EW5545 Weather Reports


Display with metric or nautical units.
time (UTC)temp
F
wind
direction
speed
MPH
gust
MPH
rain 1hr
in
rain 24hr
in
rain mn
in
humidity
%
barometer
mb
20260901224516 76 247 0.0 2.0 0.00 0.00 0.00 56 1017.2
20260901224009 76 247 1.0 1.0 0.00 0.00 0.00 56 1017.1
20260901223509 76 247 1.0 2.0 0.00 0.00 0.00 56 1017.1
20260901223016 77 247 0.0 2.0 0.00 0.00 0.00 55 1017.2
20260901222508 77 247 1.0 2.0 0.00 0.00 0.00 54 1017.1
20260901221513 77 247 0.0 1.0 0.00 0.00 0.00 55 1017.1
20260901221015 77 247 1.0 2.0 0.00 0.00 0.00 55 1017.1
20260901220018 77 247 0.0 1.0 0.00 0.00 0.00 55 1017.1
20260901215515 78 246 0.0 3.0 0.00 0.00 0.00 55 1017.1
20260901215016 77 246 1.0 3.0 0.00 0.00 0.00 55 1017.1
20260901214515 77 246 1.0 3.0 0.00 0.00 0.00 55 1017.0
20260901214017 77 246 2.0 3.0 0.00 0.00 0.00 56 1017.0
20260901213515 76 246 0.0 2.0 0.00 0.00 0.00 58 1017.1
20260901213017 75 246 0.0 1.0 0.00 0.00 0.00 59 1017.0
20260901212517 75 246 0.0 1.0 0.00 0.00 0.00 60 1017.1
20260901211516 75 246 1.0 2.0 0.00 0.00 0.00 60 1017.0
20260901211016 75 246 0.0 0.0 0.00 0.00 0.00 60 1016.9
20260901210509 75 246 0.0 0.0 0.00 0.00 0.00 61 1017.0
20260901210016 76 246 0.0 0.0 0.00 0.00 0.00 61 1016.9
20260901205514 76 246 0.0 0.0 0.00 0.00 0.00 59 1017.0
20260901205017 77 246 0.0 1.0 0.00 0.00 0.00 59 1016.9
20260901204515 77 246 0.0 1.0 0.00 0.00 0.00 59 1016.9
20260901204018 78 246 0.0 1.0 0.00 0.00 0.00 59 1016.9
20260901203513 78 246 0.0 1.0 0.00 0.00 0.00 59 1016.9
20260901203017 78 246 0.0 1.0 0.00 0.00 0.00 59 1016.8
20260901202508 79 246 0.0 1.0 0.00 0.00 0.00 59 1016.8
20260901202016 79 246 0.0 1.0 0.00 0.00 0.00 59 1016.9
20260901201517 79 246 0.0 2.0 0.00 0.00 0.00 60 1016.9
20260901201008 79 246 1.0 2.0 0.00 0.00 0.00 61 1016.9
20260901200515 79 246 0.0 2.0 0.00 0.00 0.00 61 1016.9
20260901200016 79 246 1.0 3.0 0.00 0.00 0.00 62 1017.0
20260901195513 79 246 1.0 3.0 0.00 0.00 0.00 62 1017.0
20260901195013 79 246 2.0 3.0 0.00 0.00 0.00 63 1017.0
20260901194516 79 246 2.0 3.0 0.00 0.00 0.00 64 1017.0
20260901194016 78 241 1.0 3.0 0.00 0.00 0.00 64 1017.0
20260901193516 78 241 0.0 1.0 0.00 0.00 0.00 64 1016.9
20260901193017 78 241 0.0 1.0 0.00 0.00 0.00 63 1016.9
20260901192513 78 241 1.0 2.0 0.00 0.00 0.00 61 1017.0
20260901192014 78 241 0.0 1.0 0.00 0.00 0.00 62 1017.0
20260901191008 78 241 0.0 1.0 0.00 0.00 0.00 61 1016.8
20260901190515 79 241 0.0 1.0 0.00 0.00 0.00 60 1016.9
20260901190017 79 241 1.0 2.0 0.00 0.00 0.00 59 1016.9
20260901185515 80 241 0.0 1.0 0.00 0.00 0.00 60 1016.9
20260901185008 80 241 0.0 0.0 0.00 0.00 0.00 60 1016.9
20260901184516 80 241 0.0 1.0 0.00 0.00 0.00 60 1016.9
20260901184015 81 241 0.0 0.0 0.00 0.00 0.00 60 1016.9
20260901183017 81 56 1.0 2.0 0.00 0.00 0.00 58 1016.8
20260901182514 82 56 0.0 1.0 0.00 0.00 0.00 60 1016.7
20260901182016 82 56 1.0 3.0 0.00 0.00 0.00 60 1016.7
20260901181515 82 350 0.0 2.0 0.00 0.00 0.00 60 1016.6
20260901181016 82 41 2.0 3.0 0.00 0.00 0.00 59 1016.6
20260901180515 82 257 0.0 1.0 0.00 0.00 0.00 58 1016.6
20260901180018 83 268 1.0 3.0 0.00 0.00 0.00 57 1016.5
20260901175510 83 31 1.0 3.0 0.00 0.00 0.00 56 1016.5
20260901175016 83 45 1.0 3.0 0.00 0.00 0.00 54 1016.4
20260901174514 83 57 0.0 3.0 0.00 0.00 0.00 54 1016.3
20260901174008 83 53 1.0 5.0 0.00 0.00 0.00 55 1016.2
20260901173008 84 46 1.0 3.0 0.00 0.00 0.00 53 1015.9
20260901172515 84 43 1.0 5.0 0.00 0.00 0.00 52 1016.0
20260901171508 84 57 1.0 5.0 0.00 0.00 0.00 49 1016.0
20260901170510 85 43 2.0 7.0 0.00 0.00 0.00 50 1016.0
20260901170016 85 45 3.0 7.0 0.00 0.00 0.00 50 1015.9
20260901165516 85 53 4.0 8.0 0.00 0.00 0.00 51 1016.0
20260901165016 85 58 3.0 8.0 0.00 0.00 0.00 52 1016.0
20260901164016 86 49 2.0 7.0 0.00 0.00 0.00 50 1015.9
20260901163513 86 42 3.0 8.0 0.00 0.00 0.00 50 1016.0
20260901163017 86 49 5.0 9.0 0.00 0.00 0.00 49 1015.9
20260901162515 86 46 5.0 9.0 0.00 0.00 0.00 47 1015.9
20260901162016 86 50 3.0 9.0 0.00 0.00 0.00 49 1015.9
20260901161516 86 48 4.0 10.0 0.00 0.00 0.00 51 1015.9
20260901161015 87 47 5.0 9.0 0.00 0.00 0.00 52 1015.9
20260901160509 87 52 4.0 9.0 0.00 0.00 0.00 50 1016.0
20260901160016 87 49 5.0 10.0 0.00 0.00 0.00 48 1016.1
20260901155016 87 45 5.0 10.0 0.00 0.00 0.00 45 1016.0
20260901154515 87 48 6.0 13.0 0.00 0.00 0.00 44 1016.0
20260901153513 88 44 6.0 10.0 0.00 0.00 0.00 42 1016.0
20260901153008 88 46 3.0 10.0 0.00 0.00 0.00 45 1016.0
20260901152509 88 44 7.0 12.0 0.00 0.00 0.00 46 1016.0
20260901152008 88 49 5.0 9.0 0.00 0.00 0.00 43 1016.0
20260901151509 88 52 6.0 12.0 0.00 0.00 0.00 46 1016.0
20260901151010 88 41 6.0 12.0 0.00 0.00 0.00 46 1016.0
20260901150016 88 43 7.0 12.0 0.00 0.00 0.00 44 1016.0
20260901145513 88 49 6.0 10.0 0.00 0.00 0.00 46 1016.0
20260901145016 88 51 5.0 9.0 0.00 0.00 0.00 45 1015.9
20260901144511 88 54 6.0 12.0 0.00 0.00 0.00 44 1015.9
20260901144016 88 51 5.0 12.0 0.00 0.00 0.00 45 1015.9
20260901143508 88 46 7.0 15.0 0.00 0.00 0.00 43 1015.9
20260901143018 88 39 8.0 15.0 0.00 0.00 0.00 42 1015.8
20260901142508 88 39 7.0 12.0 0.00 0.00 0.00 42 1015.9
20260901142015 88 50 9.0 13.0 0.00 0.00 0.00 43 1015.9
20260901141513 88 45 5.0 12.0 0.00 0.00 0.00 45 1016.0
20260901141016 88 43 5.0 15.0 0.00 0.00 0.00 46 1015.9
20260901140513 88 42 5.0 14.0 0.00 0.00 0.00 45 1015.9
20260901140016 88 51 5.0 12.0 0.00 0.00 0.00 46 1016.0
20260901135515 88 37 8.0 13.0 0.00 0.00 0.00 43 1016.0
20260901135015 88 43 7.0 14.0 0.00 0.00 0.00 44 1015.9
20260901134516 88 42 6.0 10.0 0.00 0.00 0.00 51 1016.0
20260901134016 88 49 5.0 14.0 0.00 0.00 0.00 53 1016.0
20260901132514 88 44 7.0 14.0 0.00 0.00 0.00 54 1016.2
20260901132015 88 46 5.0 10.0 0.00 0.00 0.00 55 1016.2
20260901130508 89 51 5.0 17.0 0.00 0.00 0.00 52 1016.3
20260901130015 89 51 3.0 13.0 0.00 0.00 0.00 49 1016.3
20260901125513 89 50 5.0 13.0 0.00 0.00 0.00 52 1016.3
20260901125016 89 31 7.0 13.0 0.00 0.00 0.00 50 1016.4
20260901124516 89 47 7.0 15.0 0.00 0.00 0.00 51 1016.3
20260901124016 89 34 5.0 10.0 0.00 0.00 0.00 54 1016.4
20260901123016 89 46 5.0 13.0 0.00 0.00 0.00 55 1016.5
20260901122509 89 56 6.0 12.0 0.00 0.00 0.00 55 1016.6
20260901122010 89 43 6.0 12.0 0.00 0.00 0.00 52 1016.6
20260901121512 89 58 2.0 10.0 0.00 0.00 0.00 57 1016.6
20260901121016 88 52 7.0 14.0 0.00 0.00 0.00 56 1016.6
20260901120508 89 51 6.0 12.0 0.00 0.00 0.00 53 1016.6
20260901120014 89 45 5.0 14.0 0.00 0.00 0.00 53 1016.6
20260901115013 88 36 8.0 14.0 0.00 0.00 0.00 54 1016.6
20260901114515 88 38 4.0 13.0 0.00 0.00 0.00 56 1016.6
20260901114016 88 44 6.0 12.0 0.00 0.00 0.00 57 1016.6
20260901113507 88 41 6.0 12.0 0.00 0.00 0.00 56 1016.6
20260901113010 88 45 6.0 13.0 0.00 0.00 0.00 55 1016.6
20260901112515 88 255 4.0 15.0 0.00 0.00 0.00 56 1016.7
20260901112010 88 54 7.0 15.0 0.00 0.00 0.00 55 1016.6
20260901111515 89 43 5.0 15.0 0.00 0.00 0.00 55 1016.5
20260901111016 88 45 4.0 9.0 0.00 0.00 0.00 54 1016.6
20260901105512 88 45 5.0 10.0 0.00 0.00 0.00 57 1016.5
20260901104515 89 46 5.0 10.0 0.00 0.00 0.00 55 1016.5
20260901104014 88 47 5.0 8.0 0.00 0.00 0.00 57 1016.5
20260901103509 88 47 6.0 12.0 0.00 0.00 0.00 59 1016.5
20260901103016 88 55 3.0 12.0 0.00 0.00 0.00 60 1016.6
20260901102512 88 44 5.0 12.0 0.00 0.00 0.00 60 1016.6
20260901102013 87 44 3.0 9.0 0.00 0.00 0.00 61 1016.6
20260901101513 87 46 5.0 15.0 0.00 0.00 0.00 62 1016.6
20260901101015 87 52 4.0 12.0 0.00 0.00 0.00 63 1016.6
20260901095508 87 47 6.0 13.0 0.00 0.00 0.00 63 1016.6
20260901095016 87 42 5.0 10.0 0.00 0.00 0.00 62 1016.6
20260901094515 86 48 3.0 12.0 0.00 0.00 0.00 63 1016.7
20260901094016 86 42 6.0 10.0 0.00 0.00 0.00 64 1016.7
20260901093515 87 46 2.0 12.0 0.00 0.00 0.00 63 1016.7
20260901093016 87 42 6.0 12.0 0.00 0.00 0.00 63 1016.7
20260901092507 87 45 3.0 6.0 0.00 0.00 0.00 62 1016.6
20260901092016 86 43 2.0 8.0 0.00 0.00 0.00 62 1016.6
20260901091007 86 227 3.0 8.0 0.00 0.00 0.00 62 1016.6
20260901090512 86 45 6.0 9.0 0.00 0.00 0.00 61 1016.6
20260901090010 86 28 4.0 8.0 0.00 0.00 0.00 63 1016.6
20260901085509 86 43 3.0 10.0 0.00 0.00 0.00 62 1016.6
20260901085016 86 51 3.0 10.0 0.00 0.00 0.00 62 1016.6
20260901084513 86 49 3.0 7.0 0.00 0.00 0.00 64 1016.6
20260901084013 85 68 2.0 7.0 0.00 0.00 0.00 65 1016.6
20260901083514 85 47 5.0 9.0 0.00 0.00 0.00 65 1016.5
20260901083016 85 35 2.0 8.0 0.00 0.00 0.00 67 1016.6
20260901082513 85 42 2.0 5.0 0.00 0.00 0.00 67 1016.6
20260901082016 85 356 1.0 9.0 0.00 0.00 0.00 69 1016.5
20260901081515 85 47 1.0 5.0 0.00 0.00 0.00 70 1016.4
20260901081017 84 308 1.0 6.0 0.00 0.00 0.00 70 1016.4
20260901080507 84 14 5.0 9.0 0.00 0.00 0.00 70 1016.3
20260901080016 84 280 1.0 8.0 0.00 0.00 0.00 71 1016.3
20260901075515 84 33 1.0 5.0 0.00 0.00 0.00 72 1016.2
20260901075016 83 254 0.0 3.0 0.00 0.00 0.00 74 1016.1
20260901074508 83 51 3.0 6.0 0.00 0.00 0.00 74 1016.1
20260901074009 82 51 4.0 7.0 0.00 0.00 0.00 75 1016.0
20260901073513 82 41 4.0 9.0 0.00 0.00 0.00 76 1016.0
20260901073016 82 45 2.0 7.0 0.00 0.00 0.00 76 1016.0
20260901072515 82 56 2.0 6.0 0.00 0.00 0.00 78 1016.0
20260901072015 82 46 3.0 7.0 0.00 0.00 0.00 78 1016.0
20260901071512 82 47 4.0 7.0 0.00 0.00 0.00 77 1015.9
20260901071016 81 36 3.0 6.0 0.00 0.00 0.00 79 1015.9
20260901070509 81 47 0.0 5.0 0.00 0.00 0.00 81 1015.8
20260901070013 80 56 2.0 9.0 0.00 0.00 0.00 81 1015.9
20260901065507 81 47 5.0 8.0 0.00 0.00 0.00 81 1015.9
20260901065016 81 37 3.0 6.0 0.00 0.00 0.00 82 1015.9
20260901064515 80 58 3.0 7.0 0.00 0.00 0.00 83 1015.9
20260901064016 80 51 4.0 8.0 0.00 0.00 0.00 83 1015.9
20260901063508 80 48 5.0 8.0 0.00 0.00 0.00 83 1015.9
20260901062016 80 44 2.0 6.0 0.00 0.00 0.00 82 1015.9
20260901061513 80 329 1.0 3.0 0.00 0.00 0.00 82 1015.8
20260901061013 80 47 0.0 2.0 0.00 0.00 0.00 81 1015.8
20260901060515 79 266 0.0 1.0 0.00 0.00 0.00 81 1015.8
20260901060015 79 26 0.0 1.0 0.00 0.00 0.00 80 1015.9
20260901055518 79 49 0.0 3.0 0.00 0.00 0.00 81 1015.8
20260901055015 79 1 1.0 3.0 0.00 0.00 0.00 81 1015.9
20260901054519 78 229 0.0 2.0 0.00 0.00 0.00 81 1015.8
20260901054016 78 221 0.0 1.0 0.00 0.00 0.00 82 1015.8
20260901053514 77 27 0.0 2.0 0.00 0.00 0.00 82 1015.8
20260901053014 77 314 1.0 3.0 0.00 0.00 0.00 82 1015.7
20260901052507 77 26 1.0 3.0 0.00 0.00 0.00 82 1015.7
20260901052015 77 209 0.0 1.0 0.00 0.00 0.00 82 1015.6
20260901051512 76 209 0.0 1.0 0.00 0.00 0.00 82 1015.6
20260901051015 76 209 0.0 0.0 0.00 0.00 0.00 83 1015.6
20260901050509 76 209 0.0 1.0 0.00 0.00 0.00 83 1015.5
20260901045515 76 273 0.0 2.0 0.00 0.00 0.00 83 1015.5
20260901045013 76 264 0.0 1.0 0.00 0.00 0.00 84 1015.5
20260901044510 76 267 0.0 2.0 0.00 0.00 0.00 84 1015.4
20260901044010 75 328 0.0 1.0 0.00 0.00 0.00 85 1015.4
20260901043511 75 272 0.0 1.0 0.00 0.00 0.00 85 1015.4
20260901043016 75 6 0.0 1.0 0.00 0.00 0.00 86 1015.4
20260901042514 75 358 1.0 3.0 0.00 0.00 0.00 86 1015.3
20260901042007 75 333 1.0 3.0 0.00 0.00 0.00 86 1015.3
20260901041515 75 316 0.0 2.0 0.00 0.00 0.00 87 1015.2
20260901041016 75 306 0.0 2.0 0.00 0.00 0.00 87 1015.3
20260901040514 75 307 0.0 3.0 0.00 0.00 0.00 87 1015.2
20260901035515 75 319 0.0 2.0 0.00 0.00 0.00 87 1015.2
20260901035016 75 246 0.0 0.0 0.00 0.00 0.00 87 1015.2
20260901034016 75 253 1.0 3.0 0.00 0.00 0.00 87 1015.3
20260901033515 75 247 1.0 2.0 0.00 0.00 0.00 86 1015.2
20260901033017 75 73 0.0 0.0 0.00 0.00 0.00 86 1015.2
20260901032510 75 73 0.0 1.0 0.00 0.00 0.00 86 1015.2
20260901032017 75 270 0.0 2.0 0.00 0.00 0.00 86 1015.2
20260901031514 75 323 0.0 2.0 0.00 0.00 0.00 87 1015.2
20260901031008 75 295 0.0 2.0 0.00 0.00 0.00 87 1015.2
20260901030515 75 282 0.0 2.0 0.00 0.00 0.00 86 1015.2
20260901030016 75 256 1.0 2.0 0.00 0.00 0.00 86 1015.2
20260901025512 76 243 0.0 2.0 0.00 0.00 0.00 86 1015.2
20260901025015 75 243 1.0 2.0 0.00 0.00 0.00 86 1015.2
20260901024514 75 238 0.0 1.0 0.00 0.00 0.00 87 1015.2
20260901023017 75 237 0.0 2.0 0.00 0.00 0.00 87 1015.2
20260901022509 75 237 0.0 1.0 0.00 0.00 0.00 87 1015.2
20260901022013 75 237 1.0 2.0 0.00 0.00 0.00 86 1015.1
20260901021514 75 237 0.0 1.0 0.00 0.00 0.00 86 1015.1
20260901021016 75 237 0.0 1.0 0.00 0.00 0.00 86 1015.1
20260901020516 76 237 0.0 0.0 0.00 0.00 0.00 86 1015.1
20260901015509 75 237 0.0 1.0 0.00 0.00 0.00 86 1015.1
20260901015016 75 237 1.0 2.0 0.00 0.00 0.00 86 1015.1
20260901014516 75 283 0.0 1.0 0.00 0.00 0.00 86 1015.0
20260901014015 75 283 0.0 2.0 0.00 0.00 0.00 86 1015.0
20260901013512 75 234 0.0 2.0 0.00 0.00 0.00 87 1015.0
20260901012512 74 239 0.0 0.0 0.00 0.00 0.00 87 1015.0
20260901012013 74 239 0.0 0.0 0.00 0.00 0.00 86 1015.0
20260901011515 74 239 0.0 0.0 0.00 0.00 0.00 86 1015.0
20260901011016 74 239 0.0 2.0 0.00 0.00 0.00 86 1015.0
20260901010509 74 239 0.0 1.0 0.00 0.00 0.00 86 1015.0
20260901010015 75 239 0.0 2.0 0.00 0.00 0.00 86 1015.0
20260901005509 76 283 0.0 1.0 0.00 0.00 0.00 86 1015.0
20260901005013 76 47 0.0 1.0 0.00 0.00 0.00 86 1014.9
20260901004515 76 10 0.0 1.0 0.00 0.00 0.00 86 1014.9
20260901004016 75 0 0.0 1.0 0.00 0.00 0.00 86 1014.8
20260901003516 75 74 0.0 1.0 0.00 0.00 0.00 86 1014.8
20260901003017 75 297 1.0 3.0 0.00 0.00 0.00 86 1014.9
20260901002014 75 254 0.0 0.0 0.00 0.00 0.00 86 1014.9
20260901001515 75 254 0.0 1.0 0.00 0.00 0.00 86 1015.0
20260901001016 75 254 0.0 2.0 0.00 0.00 0.00 86 1015.0
20260901000514 75 254 0.0 0.0 0.00 0.00 0.00 86 1015.0
20260901000015 76 254 0.0 1.0 0.00 0.00 0.00 86 1015.1
20260831235512 76 254 0.0 0.0 0.00 0.00 0.00 86 1015.0
20260831234015 76 286 1.0 2.0 0.00 0.00 0.00 86 1015.1
20260831233512 76 254 0.0 1.0 0.00 0.00 0.00 86 1015.1
20260831233016 76 18 0.0 3.0 0.00 0.00 0.00 86 1015.0
20260831232513 76 36 1.0 3.0 0.00 0.00 0.00 86 1015.0
20260831232014 76 351 0.0 3.0 0.00 0.00 0.00 86 1015.0
20260831231515 76 257 0.0 2.0 0.00 0.00 0.00 86 1015.0
20260831231016 76 347 0.0 2.0 0.00 0.00 0.00 86 1015.0
20260831225512 77 32 0.0 2.0 0.00 0.00 0.00 86 1015.0